Weather History for PATK - December, 2012

Change the Weather History Date:

Thursday, December 13, 2012

  Actual Average Record
Temperature  
Mean Temperature 22 °F -  
Max Temperature 24 °F 19 °F 38 °F (1962)
Min Temperature 21 °F 2 °F -38 °F (1956)
Degree Days  
Heating Degree Days 42    
Moisture  
Dew Point 22 °F    
Average Humidity 96    
Maximum Humidity 100    
Minimum Humidity 92    
Precipitation  
Precipitation 0.01 in - - ()
Sea Level Pressure  
Sea Level Pressure 29.31 in    
Wind  
Wind Speed 4 mph (South)    
Max Wind Speed 10 mph    
Max Gust Speed -    
Visibility 7 miles    
Events Snow    
Averages and records for this station are not official NWS values.
T = Trace of Precipitation, MM = Missing Value Source: NWS Daily Summary

Daily Weather History Graph

Daily Weather History Graph

Search for Another Location

Airport or City:

Trip Planner

Search our weather history database for the weather conditions in past years. The results will help you decide how hot, cold, wet, or windy it might be!

Date:

Astronomy

Dec. 13, 2012 Rise Set
Actual Time 10:21 AM AKST 3:28 PM AKST
Civil Twilight 9:14 AM AKST 4:35 PM AKST
Nautical Twilight 8:11 AM AKST 5:37 PM AKST
Astronomical Twilight 7:16 AM AKST 6:33 PM AKST
Moon 10:28 AM AKST (12/13) 4:35 PM AKST (12/13)
Length of Visible Light 7h 20m
Length of Day
5h 07m
New Moon, 0% of the Moon is Illuminated
Dec 13
New Moon
Dec 19
First Quarter
Dec 28
Full
Jan 4
Last Quarter
Jan 11
New

Hourly Weather History & Observations

Time (AKST) Temp. Windchill Dew Point Humidity Pressure Visibility Wind Dir Wind Speed Gust Speed Precip Events Conditions
12:27 AM 24.8 °F - 23.0 °F 93% 29.26 in 10.0 mi North - - N/A   Overcast
12:53 AM 23.0 °F 12.4 °F 21.9 °F 96% 29.28 in 10.0 mi South 10.4 mph - N/A   Overcast
1:18 AM 23.0 °F 13.9 °F 21.2 °F 93% 29.26 in 10.0 mi South 8.1 mph - N/A   Overcast
1:40 AM 23.0 °F 15.8 °F 21.2 °F 93% 29.26 in 10.0 mi Variable 5.8 mph - N/A   Overcast
1:53 AM 23.0 °F 15.8 °F 21.9 °F 96% 29.28 in 10.0 mi South 5.8 mph - N/A   Overcast
2:05 AM 23.0 °F 14.7 °F 21.2 °F 93% 29.26 in 10.0 mi Variable 6.9 mph - N/A   Overcast
2:18 AM 23.0 °F - 21.2 °F 93% 29.27 in 10.0 mi Calm Calm - N/A   Overcast
3:53 AM 23.0 °F 13.9 °F 21.0 °F 92% 29.29 in 10.0 mi NNE 8.1 mph - N/A   Overcast
4:53 AM 23.0 °F - 21.9 °F 96% 29.29 in 10.0 mi Calm Calm - N/A   Overcast
5:46 AM 23.0 °F 14.7 °F 21.2 °F 93% 29.27 in 4.0 mi NNE 6.9 mph - N/A   Overcast
5:53 AM 23.0 °F - 21.9 °F 96% 29.29 in 5.0 mi Calm Calm - N/A   Overcast
6:53 AM 23.0 °F 14.7 °F 21.9 °F 96% 29.29 in 10.0 mi NNE 6.9 mph - N/A   Overcast
7:53 AM 23.0 °F - 21.9 °F 96% 29.30 in 10.0 mi Calm Calm - N/A   Overcast
8:51 AM 23.0 °F - 21.2 °F 93% 29.29 in 3.0 mi Calm Calm - 0.01 in Snow Light Snow
8:53 AM 23.0 °F - 21.9 °F 96% 29.31 in 3.0 mi Calm Calm - 0.01 in Snow Light Snow
9:08 AM 23.0 °F 13.9 °F 21.2 °F 93% 29.29 in 5.0 mi East 8.1 mph - 0.00 in   Overcast
9:53 AM 23.0 °F - 21.9 °F 96% 29.31 in 8.0 mi Calm Calm - 0.00 in   Overcast
10:53 AM 23.0 °F - 21.9 °F 96% 29.33 in 9.0 mi Calm Calm - N/A   Overcast
11:53 AM 23.0 °F 15.8 °F 21.9 °F 96% 29.34 in 10.0 mi Variable 5.8 mph - N/A   Overcast
12:00 PM 23.0 °F 15.8 °F 21.2 °F 93% 29.32 in 10.0 mi South 5.8 mph - N/A   Overcast
12:29 PM 23.0 °F 14.7 °F 21.2 °F 93% 29.33 in 7.0 mi SSW 6.9 mph - N/A   Overcast
12:53 PM 23.0 °F 13.9 °F 21.9 °F 96% 29.35 in 8.0 mi South 8.1 mph - N/A   Overcast
3:53 PM 21.9 °F 15.7 °F 21.0 °F 96% 29.34 in 10.0 mi SW 4.6 mph - N/A   Overcast
4:39 PM 21.2 °F - 21.2 °F 100% 29.33 in 5.0 mi Calm Calm - N/A   Overcast
4:53 PM 21.9 °F 17.2 °F 21.0 °F 96% 29.35 in 3.0 mi SSW 3.5 mph - N/A   Overcast
5:53 PM 21.9 °F - 21.0 °F 96% 29.35 in 10.0 mi Calm Calm - N/A   Overcast
6:50 PM 21.2 °F - 21.2 °F 100% 29.33 in 1.8 mi Calm Calm - N/A   Overcast
6:53 PM 23.0 °F - 21.9 °F 96% 29.35 in 1.2 mi Calm Calm - N/A   Overcast
7:33 PM 21.2 °F - 21.2 °F 100% 29.32 in 0.8 mi Calm Calm - N/A   Mist
7:53 PM 23.0 °F - 21.9 °F 96% 29.34 in 0.8 mi Calm Calm - N/A   Mist
8:36 PM 23.0 °F - 21.2 °F 93% 29.32 in 2.0 mi Calm Calm - N/A   Overcast
8:45 PM 23.0 °F - 23.0 °F 100% 29.32 in 5.0 mi Calm Calm - N/A   Overcast
8:53 PM 23.0 °F - 21.9 °F 96% 29.34 in 6.0 mi Calm Calm - N/A   Overcast
9:53 PM 23.0 °F - 21.9 °F 96% 29.33 in 4.0 mi Calm Calm - N/A   Overcast
10:17 PM 21.2 °F - 21.2 °F 100% 29.30 in 8.0 mi Calm Calm - N/A   Overcast
10:37 PM 21.2 °F - 21.2 °F 100% 29.30 in 9.0 mi Calm Calm - N/A   Overcast
10:53 PM 21.9 °F - 21.0 °F 96% 29.32 in 10.0 mi Calm Calm - N/A   Overcast
11:53 PM 21.9 °F - 21.0 °F 96% 29.32 in 5.0 mi Calm Calm - 0.00 in   Overcast